Beckley, WV

8:49 PM EDT on September 21, 2019 (GMT -0400)
Raleigh County Memorial

Weather History for KBKW - July, 2019

Change the Weather History Date:

Sunday, July 14, 2019

  Actual Average Record
Temperature  
Mean Temperature 75 °F 71 °F  
Max Temperature 87 °F 80 °F 94 °F (1954)
Min Temperature 62 °F 62 °F 43 °F (1926)
Degree Days  
Heating Degree Days 0 0  
Month to date heating degree days 0 0  
Since 1 June heating degree days 33 39  
Since 1 July heating degree days 0 0  
Cooling Degree Days 10 6  
Month to date cooling degree days 143 84  
Year to date cooling degree days 369 236  
Since 1 June cooling degree days 249 195  
Growing Degree Days 24 (Base 50)    
Moisture  
Dew Point 61 °F    
Average Humidity 65    
Maximum Humidity 87    
Minimum Humidity 43    
Precipitation  
Precipitation 0.00 in 0.18 in 1.68 in (1939)
Month to date precipitation 1.99 2.19  
Year to date precipitation 24.88 23.35  
Sea Level Pressure  
Sea Level Pressure 30.10 in    
Wind  
Wind Speed 5 mph (WNW)    
Max Wind Speed 13 mph    
Max Gust Speed 16 mph    
Visibility 10 miles    
Events      
T = Trace of Precipitation, MM = Missing Value Source: NWS Daily Summary

Daily Weather History Graph

Daily Weather History Graph

Search for Another Location

Airport or City:

Astronomy

Jul. 14, 2019 Rise Set
Actual Time 6:13 AM EDT 8:46 PM EDT
Civil Twilight 5:43 AM EDT 9:17 PM EDT
Nautical Twilight 5:05 AM EDT 9:54 PM EDT
Astronomical Twilight 4:22 AM EDT 10:37 PM EDT
Moon 7:07 PM EDT (7/14) 4:13 AM EDT (7/14)
Length of Visible Light 15h 33m
Length of Day
14h 32m
Waxing Gibbous, 95% of the Moon is Illuminated
Jul 14
Waxing Gibbous
Jul 16
Full
Jul 24
Last Quarter
Jul 31
New
Aug 7
First Quarter

Hourly Weather History & Observations

Time (EDT) Temp. Heat Index Dew Point Humidity Pressure Visibility Wind Dir Wind Speed Gust Speed Precip Events Conditions
12:51 AM 66.0 °F - 60.1 °F 81% 30.07 in 10.0 mi Calm Calm - N/A   Clear
1:51 AM 66.9 °F - 60.1 °F 79% 30.06 in 10.0 mi Calm Calm - N/A   Clear
2:51 AM 64.0 °F - 60.1 °F 87% 30.06 in 10.0 mi SSW 3.5 mph - N/A   Clear
3:51 AM 64.0 °F - 60.1 °F 87% 30.06 in 10.0 mi Calm Calm - N/A   Clear
4:51 AM 64.9 °F - 60.1 °F 84% 30.06 in 10.0 mi West 3.5 mph - N/A   Clear
5:51 AM 64.0 °F - 60.1 °F 87% 30.09 in 10.0 mi Calm Calm - N/A   Clear
6:51 AM 66.0 °F - 62.1 °F 87% 30.10 in 10.0 mi WSW 4.6 mph - N/A   Clear
7:51 AM 68.0 °F - 63.0 °F 84% 30.12 in 10.0 mi SW 5.8 mph - N/A   Clear
8:51 AM 71.1 °F - 64.0 °F 78% 30.13 in 10.0 mi WSW 5.8 mph - N/A   Clear
9:51 AM 75.9 °F - 64.9 °F 69% 30.14 in 10.0 mi West 5.8 mph - N/A   Clear
10:51 AM 79.0 °F - 61.0 °F 54% 30.14 in 10.0 mi NNW 10.4 mph - N/A   Clear
11:51 AM 81.0 °F 81.7 °F 61.0 °F 50% 30.14 in 10.0 mi North - - N/A   Partly Cloudy
12:51 PM 82.0 °F 82.1 °F 59.0 °F 45% 30.13 in 10.0 mi WNW 6.9 mph - N/A   Clear
1:51 PM 82.9 °F 83.2 °F 60.1 °F 46% 30.11 in 10.0 mi Variable 5.8 mph - N/A   Clear
2:51 PM 84.9 °F 84.4 °F 59.0 °F 41% 30.09 in 10.0 mi North - - N/A   Clear
3:51 PM 84.9 °F 85.0 °F 61.0 °F 44% 30.09 in 10.0 mi NNW 9.2 mph - N/A   Mostly Cloudy
4:51 PM 84.9 °F 85.4 °F 62.1 °F 46% 30.08 in 10.0 mi NW 10.4 mph - N/A   Scattered Clouds
5:51 PM 84.0 °F 84.5 °F 62.1 °F 47% 30.08 in 10.0 mi NW 8.1 mph - N/A   Partly Cloudy
6:51 PM 82.9 °F 83.7 °F 62.1 °F 49% 30.08 in 10.0 mi NNW 6.9 mph - N/A   Clear
7:51 PM 81.0 °F 82.2 °F 63.0 °F 54% 30.09 in 10.0 mi NNW 9.2 mph - N/A   Scattered Clouds
8:51 PM 77.0 °F - 63.0 °F 62% 30.10 in 10.0 mi NW 5.8 mph - N/A   Clear
9:51 PM 75.0 °F - 62.1 °F 64% 30.11 in 10.0 mi WNW 3.5 mph - N/A   Clear
10:51 PM 71.1 °F - 62.1 °F 73% 30.13 in 10.0 mi Calm Calm - N/A   Clear
11:51 PM 71.1 °F - 62.1 °F 73% 30.12 in 10.0 mi Calm Calm - N/A   Clear